Regional Weather Roundup
Issued by NWS Charleston, SC

Current Version | Previous Version | Graphics & Text | Print | Product List | Glossary On
Versions: 1 2 3 4 5 6 7 8 9 10 11 12 13 14 15 16 17 18 19 20 21 22 23 24 25 26 27 28 29 30 31 32 33 34 35 36 37 38 39 40 41 42 43 44 45 46 47 48 49 50
000
ASUS42 KCHS 251228
RWRCHS

REGIONAL WEATHER ROUNDUP
NATIONAL WEATHER SERVICE CHARLESTON SC
800 AM EDT WED MAY 25 2016

NOTE: "FAIR" INDICATES FEW OR NO CLOUDS BELOW 12,000 FEET WITH NO
SIGNIFICANT WEATHER AND/OR OBSTRUCTIONS TO VISIBILITY.

NOT ALL STATIONS ARE QUALITY CONTROLLED. USE DATA WITH CAUTION...
ESPECIALLY DEWPOINT OBSERVATIONS.

SCZ027-030-031-034>040-042>050-251300-
...SOUTHEAST SOUTH CAROLINA...

CITY           SKY/WX    TMP DP  RH WIND       PRES   REMARKS
N CHARLESTON   MOSUNNY   73  68  84 S5        30.23R
6HR MIN TEMP:  65; 6HR MAX TEMP:  73;

WATERFRONT PRK   N/A     73  69  87 CALM      30.21R
MOUNT PLEASANT FAIR      72  70  94 CALM      30.24R
JOHNS ISLAND   FAIR      75  70  83 CALM      30.24R
PINOPOLIS        N/A     81  68  65 CALM      30.15R
MONCKS CORNER  FAIR      66  63  88 CALM      30.24R
SUMMERVILLE    FAIR      64  64 100 CALM      30.24R
BEAUFORT MCAS  MOSUNNY   70  67  90 CALM      30.23R
6HR MIN TEMP:  65; 6HR MAX TEMP:  70;

BEAUFORT ARPT  FAIR      72  68  88 CALM      30.23R FOG
HILTON HEAD IS MOSUNNY   70  66  88 CALM      30.25R
WALTERBORO     MOSUNNY   70  70 100 CALM      30.24S
ALLENDALE      FAIR      70  66  88 CALM      30.23R

...SOUTHERN MIDLANDS AND PEE DEE...

CITY           SKY/WX    TMP DP  RH WIND       PRES   REMARKS
GEORGETOWN     FAIR      72  66  83 SW5       30.25R
KINGSTREE      FAIR      68  63  83 CALM      30.23S
ORANGEBURG     MOSUNNY   66  65  96 CALM      30.24R FOG
6HR MIN TEMP:  61; 6HR MAX TEMP:  65;

BARNWELL       FAIR      70  70 100 CALM      30.24R
AIKEN          FAIR      68  61  77 SW6       30.27R
MANNING        FAIR      70  64  83 SW5       30.23R
COLUMBIA       MOSUNNY   67  63  87 S3        30.22R
6HR MIN TEMP:  63; 6HR MAX TEMP:  68;

SUMTER         PTSUNNY   68  65  89 SW6       30.20R
6HR MIN TEMP:  62; 6HR MAX TEMP:  68;

FLORENCE       SUNNY     66  62  87 S3        30.23R
6HR MIN TEMP:  59; 6HR MAX TEMP:  66;

MYRTLE BEACH   SUNNY     70  61  73 CALM      30.26R
N MYRTLE BEACH MOSUNNY   69  65  86 SW3       30.24R
6HR MIN TEMP:  60; 6HR MAX TEMP:  69;


$$

GAZ063-065-086>088-099>101-113>116-118-119-134>141-150-251300-
...SOUTHEAST GEORGIA...

CITY           SKY/WX    TMP DP  RH WIND       PRES   REMARKS
SAVANNAH ARPT  MOSUNNY   70  66  87 CALM      30.24R
6HR MIN TEMP:  65; 6HR MAX TEMP:  71;

HUNTER AAF     SUNNY     70  70 100 CALM      30.21R
6HR MIN TEMP:  65; 6HR MAX TEMP:  72;

FORT STEWART   MOSUNNY   66  63  91 CALM      30.21R
6HR MIN TEMP:  62; 6HR MAX TEMP:  67;

STATESBORO     SUNNY     73  67  81 SW3       30.24R
SYLVANIA       MOSUNNY   71  66  84 CALM      30.25R
CLAXTON        FAIR      69  66  90 CALM      30.24R

...CSRA...CENTRAL AND FAR SOUTHEAST GEORGIA...

CITY           SKY/WX    TMP DP  RH WIND       PRES   REMARKS
THOMSON        SUNNY     70  64  79 CALM      30.27R
AUGUSTA-BUSH   SUNNY     64  63  96 CALM      30.22R
6HR MIN TEMP:  56; 6HR MAX TEMP:  64;

AUGUSTA-DANIEL SUNNY     71  60  68 CALM      30.23R
SWAINSBORO     FAIR      70  63  78 S3        30.24R
VIDALIA        SUNNY     70  63  78 SW5       30.23R
EASTMAN        FAIR      67  67  97 CALM      30.25R
HAZLEHURST     FAIR      72  63  73 CALM      30.22R
ALMA           MOSUNNY   67  64  90 CALM      30.22R
6HR MIN TEMP:  60; 6HR MAX TEMP:  67;

WAYCROSS       MOSUNNY   70  64  82 SW3       30.23R
JESUP          FAIR      63  61  94 CALM      30.24R
BAXLEY         PTSUNNY   70  66  88 S5        30.22S
BRUNSWICK      SUNNY     66  64  94 CALM      30.24R
SAINT SIMONS   SUNNY     73  68  84 CALM      30.22R
6HR MIN TEMP:  66; 6HR MAX TEMP:  77;


$$

SCZ027-028-034-036>038-045-046-048>050-GAZ119-141-251300-
...LAKE AND SUPPLEMENTAL COASTAL OBSERVATIONS...

STATION/POSITION TIME  TEMP    WIND        PRES    WAVE   SWELL
                       AIR SEA DIR/SP/G            HT/PER HT/PER/DIR
                 (UTC) (F)     (DEG/KT/KT) (MB)    (FT/S) (FT/S/D)
WINYAH BAY       1145   69        CALM     1023.0R
LAKE MURRAY      1100   69     240/  1/  4 1022.4R
ACE BASIN NERRS  1100   67        CALM     1023.0S
FORT PULASKI     1200   72 75  320/  2/  2 1024.1R
SAPELO ISLAND    1200   72        CALM     1024.0R

$$

ANZ835-935-AMZ111-154-330-350-352-354-370-450-454-472-251300-
...C-MAN AND BUOY OBSERVATIONS...

STATION/POSITION TIME  TEMP    WIND        PRES    WAVE   SWELL
                       AIR SEA DIR/SP/G            HT/PER HT/PER/DIR
                 (UTC) (F)     (DEG/KT/KT) (MB)    (FT/S) (FT/S/D)
BUOY 41004       1150   76 75  240/  2/  2 1023.7R   2/ 9   2/ 9
BUOY 41008       1150   76 75  170/  4/  6 1023.3R   2/ 9   2/ 90/ 9
FOLLY BEACH CMAN 1200   75      CALM  /  1 1023.9R
CAPERS NEARSHORE 1208   75 74  180/  4/  6 1023.7R
FRIPP NEARSHORE  1208   75 75  260/  2/  2 1023.4R


STATION/POSITION TIME  TEMP    WIND        PRES    WAVE   SWELL
                       AIR SEA DIR/SP/G            HT/PER HT/PER/DIR
                 (UTC) (F)     (DEG/KT/KT) (MB)    (FT/S) (FT/S/D)
5E ST. MARYS GA  1121      77                N/A     3/ 9
FRYING PAN BUOY  1200   75 76  270/  8/ 10 1023.6R
BUOY 41025       1150   68 67  270/  8/  8 1023.1R   3/ 5   3/200/ 5
CAPE LOOKOUT NC  1200   71     270/  6/  8 1023.2R
BUOY 41002       1150   74 78   40/  8/ 10 1023.8R   4/ 8   3/ 60/ 8
BUOY 41010       1120   76 78   60/  6/  8 1022.7R
ST AUGUSTINE FL  1200   77 78  150/ 12/ 13 1023.9R


$$



USA.gov is the U.S. government's official web portal to all federal, state and local government web resources and services.